Back to catalog

RE

AliveScienceVLEO
NORAD 38765·PAYLOAD·🇺🇸 United States

Launched Sep 13, 2012 from Vandenberg Space Force Base

Loading…

Next Passes (next 24 hours)

TLE

FreshSource: Space-Track

Epoch: Sep 14, 2026, 09:55 UTC

1 38765U 12048H   26257.41342414  .00005200  00000-0  21628-3 0  9998
2 38765  64.6541 251.3549 0077981 145.4092 215.2144 15.22209434128971

Track RE in real time with AllMySat

Download on the App Store